HST

Last updated on Wed Sep 09 2026 00:02:08 GMT+0000 (Coordinated Universal Time)

1 20580U 90037B 26251.24431090 .00005544 00000+0 16916-3 0 9996 2 20580 28.4722 232.5395 0001589 354.5056 5.5522 15.31583322801317
UTC large
Height (km)
Speed (km/s)
/
Latitude / Longitude
Inclination (degrees)
Orbital Period (minutes)
Azimuth
Elevation
Range (km)
Doppler Factor

Next 0 passes for location: London (51.5072 / 0.1276)

No passes found over London.
HST